Powrót do katalogu

STARLINK-33797

AktywnyŁącznośćVLEO
NORAD 63448·PAYLOAD·🇺🇸 United States

Wystrzelony Apr 4, 2025 z Vandenberg Space Force Base

Loading…

Następne Przeloty (najbliższe 24 godziny)

TLE

ŚwieżeSource: CelesTrak SupGP

Epoka: Sep 15, 2026, 03:14 UTC

1 63448C 25069R   26258.13520833  .00065637  00000+0  19395-2 0  2588
2 63448  53.1589 335.0270 0001128  94.8153 320.2277 15.34354943    15

Śledź STARLINK-33797 w czasie rzeczywistym z AllMySat

Download on the App Store